Regional Weather Roundup
Issued by NWS

Home | Current Version | Previous Version | Text Only | Print | Product List | Glossary Off
Versions: 1 2 3 4 5 6 7 8 9 10 11 12 13 14 15 16 17 18 19 20 21 22 23 24 25 26 27 28 29 30 31 32 33 34 35 36 37 38 39 40 41 42 43 44 45 46 47 48 49 50

000
ASUS43 KMPX 270310
RWRMN
WEATHER ROUNDUP FOR MINNESOTA
NATIONAL WEATHER SERVICE TWIN CITIES/CHANHASSEN MN
900 PM CST WED NOV 26 2014


NOTE: "FAIR" INDICATES FEW OR NO CLOUDS BELOW 12,000 FEET WITH NO
SIGNIFICANT WEATHER AND/OR OBSTRUCTIONS TO VISIBILITY. N/A MEANS
CURRENT SKY AND/OR WEATHER CONDITIONS ARE NOT AVAILABLE.

MNZ060>063-068>070-270400-
   Twin Cities Metro

CITY           SKY/WX    TMP DP  RH WIND       PRES   REMARKS
TWIN CITIES    CLOUDY    19  11  70 NW15      30.33R WCI   5
ST PAUL        CLOUDY    20  11  68 NW18      30.34R WCI   5
CRYSTAL        CLOUDY    20   9  62 N16G22    30.33R WCI   6
LAKEVILLE      CLOUDY    19  12  73 N12       30.31R WCI   7
EDEN PRAIRIE   CLOUDY    18  10  71 NW16      30.32R WCI   3
SOUTH ST PAUL  CLOUDY    22  12  66 N10       30.32R WCI  11
LAKE ELMO      CLOUDY    21  14  73 N9        30.32R WCI  11
$$
MNZ001>005-007-008-013>017-022>024-027-028-270400-
   Northwest Minnesota

CITY           SKY/WX    TMP DP  RH WIND       PRES   REMARKS
BEMIDJI        CLEAR     -9 -14  79 NW5       30.41S WCI -20
HALLOCK        PTCLDY    -9 -15  77 N3        30.52F
ROSEAU         PTCLDY    -8 -15  71 NW3       30.49S
WARROAD        PTCLDY    -9 -15  77 W6        30.48R WCI -23
THIEF RVR FALL CLEAR     -8 -13  77 N9        30.48S WCI -25
CROOKSTON      CLEAR     -8 -11  84 N6        30.54R WCI -21
FOSSTON        CLEAR    -11 -15  84 NW5       30.47R WCI -23
DETROIT LAKES  FLURRIES  -6  -9  84 NW7       30.46R WCI -20
MOORHEAD       PTCLDY    -6  -9  84 N9        30.52F WCI -22
PARK RAPIDS    CLEAR     -6 -11  79 NW8       30.40S WCI -21
MAHNOMEN       FAIR      -8 -12  80 N6        30.47R WCI -21
$$
MNZ006-009>011-018-025>026-270400-
   North Central Minnesota

CITY           SKY/WX    TMP DP  RH WIND       PRES   REMARKS
BAUDETTE       CLEAR     -6 -11  79 NW7       30.44R WCI -20
FLAG ISLAND    CLEAR     -8 -13  77 NW10      30.46R WCI -26
INTL FALLS     CLEAR     -7 -11  83 NW6       30.42R WCI -20
WASKISH        CLEAR     -6  -9  84 CALM      30.43S
BIG FORK       CLEAR     -6  -9  84 N6        30.39S WCI -18
LONGVILLE      CLEAR      0  -8  71 NW3       30.40R
GRAND RAPIDS   CLEAR      0  -8  71 NW15      30.36R WCI -20
CRANE LAKE     CLEAR     -2  -8  78 N5        30.41R WCI -12
ORR            PTCLDY    -6 -11  77 NW5       30.35R WCI -17
COOK           CLEAR     -6  -9  84 CALM      30.36S
WALKER         FAIR      -5 -10  77 W5        30.41R WCI -16
$$
MNZ012-019>021-037-270400-
   Northeast Minnesota

CITY           SKY/WX    TMP DP  RH WIND       PRES   REMARKS
DULUTH         CLEAR      3  -5  69 NW9       30.29S WCI -12
ELY            CLEAR     -2  -8  78 NW6       30.33R WCI -14
HIBBING        CLEAR      0  -8  69 N12       30.35R WCI -17
EVELETH        CLEAR      1  -6  71 N6        30.35R WCI -10
DULUTH HARBOR  CLEAR     10   1  67 N13G21    30.39R WCI  -5
TWO HARBORS    PTCLDY     7   0  72 NW5       30.31R WCI  -2
SILVER BAY     PTCLDY     5  -2  72 NW3       30.30S
GRAND MARAIS     N/A      5  -5  63 N18G35    30.31R WCI -15
G MARAIS ARPRT PTCLDY    -2  -9  71 N13G23    30.22R WCI -21
$$
MNZ029>031-032-039>041-046>048-054>057-064-270400-
   West Central Minnesota

CITY           SKY/WX    TMP DP  RH WIND       PRES   REMARKS
FERGUS FALLS   CLEAR     -2  -9  71 N9        30.51S WCI -18
WHEATON        CLEAR     -2  -8  78 NW8       30.52S WCI -17
MORRIS         CLEAR      0  -6  78 NW15      30.45R WCI -20
ALEXANDRIA     CLEAR      1  -7  68 N12       30.41R WCI -16
ELBOW LAKE     FAIR      -2  -6  83 N12       30.45S WCI -20
WADENA         CLEAR     -2  -8  78 NW6       30.41R WCI -14
GLENWOOD       CLEAR      1  -6  71 NW14      30.40R WCI -17
APPLETON       PTCLDY     1  -6  71 NW16      30.47S WCI -18
BENSON         PTCLDY     0  -6  78 N12       30.44R WCI -18
ORTONVILLE     CLEAR      0  -8  71 NW12      30.48R WCI -18
MADISON        PTCLDY     5  -2  72 NW16      30.48R WCI -14
WILLMAR        FAIR       7   0  72 NW15      30.41R WCI -11
$$
MNZ033>034-036-042>043-049>051-058-059-270400-
   Central Minnesota

CITY           SKY/WX    TMP DP  RH WIND       PRES   REMARKS
ST CLOUD       PTCLDY    12  -4  48 N8        30.37R WCI   0
SAUK CENTRE    FAIR       3  -5  69 NW15      30.40R WCI -16
PAYNESVILLE    PTCLDY     4  -3  71 W10       30.39R WCI -11
AITKIN         CLEAR      5  -6  61 NW6       30.37R WCI  -6
PINE RIVER     CLEAR      1  -6  71 NW8       30.41S WCI -12
BRAINERD       CLEAR      2  -6  69 N16       30.39R WCI -18
STAPLES        CLEAR      0  -8  71 NW9       30.40S WCI -16
LONG PRAIRIE   FAIR       1  -6  71 NW8       30.40R WCI -12
LITTLE FALLS   CLEAR      9  -8  47 N6        30.39R WCI  -1
LITCHFIELD     MOCLDY    12   5  73 NW13      30.38R WCI  -3
BUFFALO        CLOUDY    15   2  57 NW13G18   30.37R WCI   1
MAPLE LAKE     CLOUDY    15   4  62 N13       30.37R WCI   1
$$
MNZ037-044-045-052-053-270400-
   East Central Minnesota

CITY           SKY/WX    TMP DP  RH WIND       PRES   REMARKS
PRINCETON      CLOUDY    14   1  57 N12G17    30.36R WCI   0
MORA           PTCLDY    12  -2  52 N8        30.37R WCI   1
CAMBRIDGE      CLOUDY    16   3  57 NW9       30.34R WCI   4
RUSH CITY      CLOUDY    14   2  59 N12       30.35R WCI   1
MOOSE LAKE     CLEAR      9  -4  56 N9        30.34R WCI  -5
HINCKLEY       CLOUDY    12   1  62 N9        30.35R WCI   0
CLOQUET        FAIR       3  -6  66 NW12      30.32R WCI -13
MCGREGOR       CLEAR      5  -2  72 NW8       30.38R WCI  -8
$$
MNZ071>073-080-081-089-090-097-098-270400-
   Southwest Minnesota

CITY           SKY/WX    TMP DP  RH WIND       PRES   REMARKS
MONTEVIDEO     PTCLDY     1  -4  78 N14       30.46R WCI -17
GRANITE FALLS  CLOUDY     6  -1  74 NW18      30.46R WCI -14
CANBY          MOCLDY     4  -3  71 NW10G20   30.47S WCI -11
MARSHALL       CLOUDY     7  -2  66 N22       30.42R WCI -14
REDWOOD FALLS  CLOUDY     7   1  76 NW17G26   30.41S WCI -12
OLIVIA         PTCLDY    10   5  79 NW17G23   30.40S WCI  -7
PIPESTONE      MOCLDY     9  -2  61 N10       30.37S WCI  -6
WINDOM         CLOUDY     9   3  78 NW21G28   30.36S WCI -11
WORTHINGTON    CLOUDY     9   1  72 N17       30.36S WCI -10
JACKSON        CLOUDY    10   5  79 NW18      30.35S WCI  -8
TRACY          CLOUDY     8   0  72 NW16G22   30.41R WCI -10
SLAYTON        CLOUDY     7  -2  66 NW15G22   30.37S WCI -10
$$
MNZ065>067-074>077-082>085-091>093-270400-
   South Central Minnesota

CITY           SKY/WX    TMP DP  RH WIND       PRES   REMARKS
MANKATO        CLOUDY    14   7  73 NW15      30.34R WCI  -1
NEW ULM        LGT SNOW  10   9  92 NW15G22   30.37S WCI  -6
ST JAMES       CLOUDY    10   7  85 NW21G28   30.39R WCI  -9
FAIRMONT       CLOUDY    10   5  79 NW21      30.34S WCI  -9
GLENCOE        CLOUDY    18  14  82 NW12      30.35R WCI   6
FARIBAULT      CLOUDY    19  14  79 NW8       30.31R WCI   9
OWATONNA       CLOUDY    21  16  79 NW12      30.29S WCI   9
WASECA         CLOUDY    18  12  79 W13       30.34R WCI   4
ALBERT LEA     CLOUDY    19  18  93 NW9       30.29R WCI   9
$$
MNZ078>079-086>088-094>096-270400-
   Southeast Minnesota

CITY           SKY/WX    TMP DP  RH WIND       PRES   REMARKS
ROCHESTER      CLOUDY    22  17  81 N13       30.26R WCI  10
RED WING       CLOUDY    25  14  63 N8        30.30R WCI  16
STANTON        CLOUDY    23  14  69 N15       30.30R WCI  10
DODGE CENTER   CLOUDY    21  19  93 NW9       30.26S WCI  11
WINONA         CLOUDY    25  23  93 NW8       30.27S WCI  16
AUSTIN         CLOUDY    21  18  86 NW12G17   30.27R WCI   9
PRESTON        CLOUDY    23  20  89 N9        30.25R WCI  13
$$
ABBREVIATIONS USED IN REMARKS
   TC - TEMPERATURES IN CELSIUS
  WCI - WIND CHILL INDEX
   HX - HEAT INDEX
  VSB - VISIBILITY
$$



USA.gov is the U.S. government's official web portal to all federal, state and local government web resources and services.